Погода в Петровке

Россия / Томская область     57°11′30″N   83°55′37″E
темп.,
°C
ветер,
м/с
пор.,
м/с
влажн.,
%
обл.,
%
осадки,
мм/ч
давл.,
гПа
погр.,
м
10 мая, пн
пн1001:00+4ссв38805 0.0 1025179
04:00+3с24855 0.0 102590
07:00+4ссв36801 0.0 1026216
10:00+9св466166 0.0 1025855
13:00+10св4559100 0.0 10251120
16:00+11всв355390 0.0 10241447
19:00+12всв3554100 0.0 1023875
22:00+8с2367100 0.0 102328
11 мая, вт
вт1101:00+8ссв41076100 0.0 1022312
04:00+7с4979100 0.0 1022333
07:00+7ссв4882100 0.0 1022319
10:00+12ссв566374 0.0 1022647
13:00+16ссв574561 0.1 10211927
16:00+15ссв564894 0.0 10211525
19:00+14св475778 0.1 1022929
22:00+10с387147 0.0 1023152
12 мая, ср
ср1201:00+8с377831 0.0 1023130
04:00+6с367822 0.0 1022113
07:00+7ссв25725 0.0 1022147
10:00+14ссв24485 0.0 1022616
13:00+17с223629 0.0 10202108
16:00+19сз133168 0.0 10182409
19:00+18зюз223391 0.0 10182296
22:00+13юз225276 0.0 101840
13 мая, чт
чт1301:00+12ююз235499 0.0 101857
04:00+10юз126414 0.0 101722
07:00+9зсз23685 0.0 1018119
10:00+15ссз224816 0.0 1018714
13:00+17зсз2342100 0.0 10171787
16:00+14сз456041 0.0 1017712
19:00+14зсз3655100 0.2 1016550
22:00+13сз51054100 0.0 1016542
14 мая, пт
пт1401:00+10зюз235592 0.0 101547
04:00+9з3956100 0.0 1015331
07:00+9ссз5107350 0.0 10161175
10:00+8ссз710445 0.0 10181327
13:00+10ссз79315 0.0 10191762
16:00+12сз6828100 0.0 10191870
19:00+11сз4832100 0.0 10201721
22:00+8сз2541100 0.0 1020162